Wind_Speed
40 40 37 36 36 36 36 34 31 28 27 25 22 19 16 14 14 15 15 14 13 12 11 9 7 7 5 5 5 5 8 11
39 40 38 38 38 39 39 38 36 35 33 31 26 23 18 17 17 17 17 15 14 11 10 9 7 6 5 4 4 6 12 15
39 43 43 44 44 43 41 39 38 37 33 30 26 23 20 17 18 18 17 15 13 12 10 9 8 7 6 6 7 10 14 17
42 46 48 49 48 47 44 40 37 35 33 30 27 23 21 22 21 19 17 15 14 12 11 10 8 7 6 7 9 11 14 17
45 50 52 55 52 47 41 38 36 35 32 32 30 30 27 23 18 18 17 16 14 12 11 10 8 7 6 6 7 9 12 14
47 53 57 58 56 48 40 37 36 36 34 31 30 26 21 20 21 19 18 17 15 13 11 9 7 6 5 5 6 7 9 11
44 46 46 50 50 44 37 38 36 35 34 32 29 25 24 23 23 21 19 17 15 14 11 9 8 7 5 4 4 5 7 9
35 40 43 47 48 43 38 36 34 37 34 30 26 24 21 19 21 20 18 17 16 13 11 10 8 6 5 4 5 6 7 7
43 46 48 49 46 39 34 30 35 36 33 29 28 25 23 19 19 17 16 15 15 14 12 10 8 7 6 5 5 5 5 6
29 33 39 46 43 40 34 30 35 32 32 31 30 28 26 23 23 17 18 18 16 14 12 10 9 8 7 5 5 5 6 7
27 34 40 47 43 37 30 30 30 31 31 28 26 28 27 25 22 20 20 18 16 14 12 12 11 10 8 7 7 7 7 8
25 33 42 40 41 35 31 31 31 33 30 28 28 31 30 27 23 21 20 18 16 15 13 12 12 11 10 9 8 8 8 8
16 28 36 41 35 33 32 32 33 33 29 28 30 32 32 28 23 22 21 19 17 16 14 14 14 13 11 10 9 9 8 8
15 12 23 34 33 34 35 33 36 33 31 30 32 34 31 25 24 24 22 20 18 17 16 15 15 13 12 12 11 11 11 10
18 22 20 22 23 31 40 40 39 35 32 33 33 33 29 26 25 24 21 20 18 17 16 15 15 14 14 14 13 13 14 13
18 17 22 19 32 38 42 43 40 36 33 33 34 32 29 27 27 24 21 20 18 16 16 16 16 16 15 15 15 15 15 15
24 26 30 22 25 30 40 46 43 40 36 36 35 32 30 29 27 24 23 21 21 18 17 17 18 18 17 17 17 17 16 14
18 25 34 32 28 38 39 47 47 43 39 38 35 34 33 32 29 26 24 23 19 18 19 20 20 21 20 20 19 17 15 14
13 11 13 32 42 42 42 46 45 45 43 40 37 36 35 33 32 29 26 23 21 21 20 22 23 23 22 22 21 17 16 13
Wind_Direction
212 213 214 210 206 205 202 201 201 199 199 201 211 222 223 219 215 209 207 204 204 205 207 207 207 205 203 202 196 189 189 189
218 215 211 205 205 204 202 201 202 203 201 204 210 214 212 211 205 203 204 203 202 205 209 211 212 209 207 213 214 190 186 185
220 216 213 207 205 203 202 204 206 206 209 211 213 206 202 205 205 202 201 204 204 205 209 212 212 209 206 205 203 201 191 186
216 214 212 206 206 203 201 201 206 208 205 204 198 196 197 200 199 200 200 203 206 207 208 208 211 214 214 212 203 201 208 201
220 213 208 206 207 201 198 202 206 207 204 200 204 201 198 199 196 195 197 201 204 205 206 211 214 217 213 213 213 208 211 220
215 215 214 206 203 195 199 203 204 204 203 205 202 200 197 195 192 194 197 199 200 204 204 207 212 217 216 210 210 210 217 221
219 209 198 196 196 193 200 202 201 205 203 199 200 192 188 188 192 193 194 197 201 201 201 204 212 218 212 211 215 215 215 219
201 193 191 192 188 192 196 199 204 202 201 196 195 197 200 203 199 196 196 199 198 198 201 205 212 215 217 214 206 199 195 201
201 196 190 190 186 192 195 201 209 201 199 205 204 205 210 204 203 202 200 199 199 199 200 204 212 217 220 212 204 196 182 177
182 182 183 187 185 197 202 200 206 207 206 200 200 208 212 205 199 202 203 199 196 197 200 208 212 214 218 209 200 192 173 160
180 183 191 190 193 193 197 204 208 212 205 201 206 213 215 208 204 204 203 201 199 200 204 206 208 208 210 205 196 184 170 160
189 187 192 197 202 189 198 209 211 207 205 208 211 211 211 208 205 204 204 204 205 202 203 204 205 206 204 201 195 187 178 168
201 201 201 203 208 201 201 206 212 213 215 213 211 211 210 207 201 204 206 208 207 204 201 202 205 204 203 200 198 191 185 181
328 241 225 208 213 207 201 212 212 216 216 213 208 207 206 204 202 204 206 209 205 202 200 203 206 204 205 202 196 194 186 183
247 279 238 226 213 221 214 217 216 214 213 206 206 206 203 202 202 205 206 207 208 205 201 203 204 204 200 197 192 189 182 176
246 234 243 254 241 234 227 219 214 214 211 212 207 204 201 201 205 204 206 209 206 205 209 204 201 199 194 192 184 181 178 173
245 241 242 245 239 236 229 219 213 213 211 208 205 203 200 201 205 202 205 205 204 203 206 207 199 195 188 187 188 183 180 180
266 260 245 223 253 253 243 223 213 209 209 208 207 205 203 202 202 198 197 204 203 207 211 203 196 192 187 184 183 181 179 175
275 325 259 238 234 231 230 222 212 208 209 207 206 205 205 202 204 211 201 200 212 213 206 199 193 187 187 185 183 180 181 177
Height
1436 1438 1446 1452 1455 1458 1458 1461 1464 1470 1474 1477 1482 1486 1489 1489 1490 1492 1493 1496 1498 1501 1503 1505 1506 1508 1508 1509 1509 1509 1509 1510
1435 1437 1440 1447 1451 1452 1453 1455 1458 1462 1466 1472 1476 1480 1485 1487 1488 1490 1491 1493 1496 1499 1502 1504 1505 1506 1507 1507 1507 1508 1508 1509
1429 1431 1434 1439 1441 1444 1447 1452 1455 1457 1463 1468 1472 1475 1480 1484 1486 1488 1490 1492 1495 1497 1500 1502 1503 1504 1505 1506 1506 1506 1506 1506
1420 1423 1427 1433 1436 1438 1443 1446 1452 1457 1458 1464 1468 1473 1474 1477 1481 1485 1488 1491 1494 1496 1498 1499 1501 1502 1503 1505 1506 1505 1505 1505
1409 1414 1417 1421 1428 1435 1441 1444 1448 1452 1456 1458 1462 1465 1468 1474 1479 1483 1486 1489 1492 1493 1496 1497 1499 1501 1502 1503 1503 1504 1504 1504
1396 1401 1406 1413 1419 1428 1437 1441 1444 1447 1450 1454 1458 1463 1468 1472 1476 1480 1484 1487 1489 1492 1494 1495 1497 1498 1500 1500 1501 1502 1502 1503
1391 1397 1406 1411 1418 1428 1435 1441 1443 1447 1449 1450 1457 1460 1464 1467 1472 1476 1481 1485 1487 1489 1492 1493 1495 1496 1498 1498 1499 1500 1501 1501
1394 1396 1401 1406 1415 1424 1431 1436 1441 1444 1446 1449 1456 1460 1465 1467 1470 1473 1477 1481 1484 1487 1489 1492 1493 1495 1496 1497 1498 1499 1500 1500
1386 1389 1392 1400 1415 1422 1427 1429 1439 1440 1443 1447 1453 1458 1463 1465 1469 1473 1476 1478 1482 1485 1488 1489 1491 1493 1494 1496 1497 1498 1498 1499
1391 1397 1398 1402 1406 1417 1421 1424 1436 1439 1442 1445 1449 1456 1462 1461 1464 1471 1475 1477 1479 1482 1485 1488 1490 1492 1493 1496 1497 1497 1498 1498
1393 1395 1401 1406 1404 1406 1417 1425 1430 1438 1440 1441 1447 1455 1461 1461 1462 1466 1472 1475 1477 1480 1483 1486 1488 1491 1492 1494 1496 1496 1497 1497
1398 1398 1399 1396 1405 1404 1412 1420 1427 1434 1436 1440 1444 1453 1458 1460 1458 1464 1468 1473 1476 1478 1481 1484 1487 1489 1491 1493 1494 1495 1496 1497
1400 1398 1397 1399 1404 1406 1411 1419 1425 1430 1433 1435 1440 1450 1455 1457 1456 1462 1467 1471 1474 1477 1479 1482 1485 1488 1490 1491 1493 1494 1495 1496
1399 1397 1394 1393 1400 1406 1411 1418 1422 1427 1430 1432 1437 1446 1451 1451 1455 1461 1465 1470 1473 1475 1477 1480 1483 1486 1488 1490 1491 1493 1495 1497
1388 1389 1394 1395 1397 1402 1407 1408 1418 1423 1426 1429 1434 1442 1445 1448 1454 1460 1462 1469 1472 1474 1477 1479 1482 1484 1486 1488 1490 1493 1495 1497
1385 1384 1388 1390 1395 1396 1402 1409 1414 1419 1423 1428 1433 1438 1441 1446 1454 1457 1461 1467 1471 1473 1475 1478 1481 1483 1484 1487 1489 1492 1495 1497
1380 1383 1384 1384 1387 1390 1396 1400 1409 1416 1421 1426 1430 1435 1439 1444 1452 1454 1458 1463 1467 1470 1471 1475 1478 1482 1482 1486 1490 1492 1495 1497
1377 1373 1371 1376 1383 1385 1387 1392 1400 1409 1416 1421 1427 1431 1436 1441 1447 1452 1455 1457 1462 1466 1469 1472 1476 1481 1481 1486 1489 1492 1495 1497
1370 1366 1364 1368 1373 1375 1380 1387 1396 1403 1409 1416 1424 1427 1433 1438 1443 1447 1451 1455 1459 1463 1467 1471 1475 1478 1480 1485 1489 1492 1494 1496